Wind_Speed
98 98 98 97 97 97 97 96 96 96 96 95 95 95 95 96 96 96 96 96 96 96 97 98 98 99 99 100 100 101 102 103 103 103 104 104 104 104 104 104 104 105 105 106 106 106 106 106 105 103 102 100 98 96 94 91 89 87 85 83 82 80 78 76 74 72 70 67 65 64 63 63 62 62 63 63 63 64 64 64 63 62 62 61 60 60
100 100 100 100 100 100 100 99 99 99 99 99 99 99 99 99 100 100 100 99 99 99 100 101 101 101 102 102 103 103 104 104 105 105 105 105 105 105 105 105 105 105 106 106 106 106 105 105 104 102 100 98 96 94 92 90 88 86 84 83 81 80 78 76 74 72 70 67 65 64 63 63 63 63 63 63 63 64 64 64 63 63 62 61 61 61
102 102 102 103 103 102 102 102 102 102 102 102 102 102 102 102 103 103 103 103 103 102 103 103 104 104 104 104 105 105 106 106 106 107 107 106 106 106 106 106 106 106 106 106 106 105 104 103 102 101 99 97 95 93 91 88 86 85 83 82 81 80 78 76 74 72 70 67 66 64 64 63 63 63 63 63 63 64 64 64 63 62 62 61 61 62
104 104 105 105 105 105 105 104 104 104 104 104 104 104 104 104 105 105 106 105 105 105 106 106 106 106 106 106 106 107 107 107 107 108 107 107 107 106 106 106 106 106 106 105 105 104 103 102 100 99 97 95 93 91 89 87 85 84 82 81 80 79 78 76 74 72 70 67 66 65 64 63 63 63 63 63 63 64 64 63 63 63 62 62 62 63
106 106 106 106 106 106 106 106 106 106 106 106 106 106 105 105 106 106 106 107 107 107 107 108 108 108 108 108 108 108 108 108 108 108 108 107 107 106 105 105 105 105 105 104 103 102 101 100 98 97 96 94 92 90 88 86 84 83 81 81 79 78 77 76 74 71 69 67 66 65 64 64 63 63 63 63 63 63 63 63 63 63 63 63 63 64
107 107 107 107 107 108 107 107 107 108 108 107 107 107 107 106 106 106 107 107 107 108 108 109 109 109 109 109 109 109 109 108 108 108 107 107 106 105 104 104 104 104 103 103 102 101 99 98 96 95 94 92 91 89 87 85 83 82 81 80 79 78 77 76 74 71 69 67 66 65 64 64 64 63 63 63 63 63 63 63 63 63 64 64 64 65
107 107 107 107 107 107 107 107 108 108 108 108 108 108 107 107 107 106 106 107 107 107 108 109 109 109 109 110 110 109 109 108 108 107 107 106 105 104 103 102 102 102 102 101 100 99 98 96 94 93 91 90 89 87 85 83 82 81 80 79 78 78 77 76 73 71 69 67 66 65 65 64 64 63 63 63 63 63 63 64 64 64 64 65 65 66
107 106 106 106 107 107 107 107 107 107 107 107 107 107 107 107 106 106 106 106 106 106 107 108 108 109 109 110 109 109 108 107 106 106 105 104 103 102 101 100 100 100 99 99 98 97 96 94 92 91 90 88 87 86 84 82 81 79 78 78 77 77 77 75 73 71 69 67 66 65 65 65 64 63 63 62 63 63 63 64 64 65 65 65 66 66
105 105 105 105 105 105 105 105 105 105 105 106 106 106 106 105 105 104 104 104 104 105 105 106 107 107 108 109 109 108 107 106 105 104 103 102 101 100 99 98 98 98 97 97 96 95 94 92 91 89 88 87 85 84 82 81 79 78 77 77 77 77 76 75 73 71 69 67 66 66 65 65 64 63 63 62 63 63 64 64 65 65 66 66 66 66
103 103 103 103 103 103 103 103 103 103 103 103 103 103 103 103 103 102 102 102 102 103 103 104 105 106 107 107 107 107 106 104 103 102 101 100 99 98 97 96 96 95 95 95 94 93 92 90 89 88 86 85 84 82 81 79 78 77 76 76 76 76 76 75 73 71 69 68 67 66 66 65 64 64 63 63 63 63 64 65 65 66 66 66 67 67
101 101 101 101 101 100 100 100 100 100 100 101 101 101 100 100 100 100 100 100 100 101 102 102 103 104 104 105 105 105 104 103 102 101 99 98 97 96 95 94 94 93 93 93 92 91 90 89 87 86 85 83 82 80 79 78 77 76 75 75 75 76 76 75 73 71 70 68 67 66 66 65 64 64 63 63 63 64 65 65 66 66 66 67 67 67
99 99 99 99 98 98 98 98 97 97 97 98 98 98 98 98 98 98 98 98 98 99 100 100 101 101 102 102 103 103 102 101 100 99 98 96 95 94 93 92 92 91 91 91 90 89 88 87 86 85 83 81 80 79 78 76 75 74 74 74 74 75 75 74 73 72 70 69 68 67 66 65 64 64 63 64 64 65 65 66 66 67 67 67 67 67
97 97 97 97 96 96 96 95 95 95 95 95 95 95 95 95 95 96 96 96 97 97 98 98 98 99 99 99 100 100 100 100 99 97 96 94 93 92 91 91 90 90 89 89 88 87 86 85 84 83 81 80 78 77 76 75 74 73 73 73 73 74 74 73 73 72 71 69 68 67 66 65 64 64 64 64 65 66 66 67 67 67 67 67 67 68
96 95 95 95 95 94 94 93 93 93 93 93 93 93 93 93 94 94 95 95 95 96 96 96 96 96 96 97 97 98 99 99 98 96 94 93 91 90 89 89 88 88 87 87 86 85 85 83 82 81 80 78 76 75 74 73 72 72 72 72 72 73 73 73 72 72 71 70 69 67 66 65 64 64 64 65 66 66 67 67 67 67 67 67 67 68
95 94 94 94 93 93 92 92 92 92 91 91 91 91 91 92 92 93 94 94 94 94 94 94 94 94 93 94 95 96 97 97 96 95 93 91 90 89 87 87 86 86 85 85 84 84 83 81 80 79 78 76 75 73 72 71 71 71 71 71 71 72 72 72 72 72 71 70 69 67 66 65 65 65 65 66 67 67 67 67 67 67 67 67 68 70
94 93 93 93 92 92 91 91 91 90 90 90 90 90 90 91 91 92 93 93 93 93 93 93 92 92 92 92 93 94 95 96 95 93 91 90 88 87 85 84 84 84 84 83 83 82 81 79 78 77 75 74 73 72 71 70 70 70 70 70 70 71 71 72 72 72 71 70 69 67 66 65 65 66 66 67 67 67 67 67 67 67 67 68 69 71
93 93 92 92 91 91 90 90 90 90 89 89 89 89 90 90 91 92 92 92 92 92 92 92 91 90 90 90 91 93 94 94 94 92 89 87 86 84 83 82 82 82 82 81 81 80 79 78 76 75 73 72 71 70 69 69 69 69 69 69 70 70 71 71 72 72 71 70 69 67 66 66 66 66 67 67 68 68 67 67 67 67 68 69 70 72
91 91 91 91 90 90 90 89 89 89 89 89 89 89 89 90 90 91 91 92 92 91 91 90 90 89 89 89 90 91 93 93 92 90 87 85 83 82 81 80 80 80 80 80 79 78 77 76 74 73 71 70 69 68 68 68 68 68 68 69 69 69 70 71 72 72 71 70 69 68 67 66 67 67 67 68 68 68 67 67 67 68 68 70 71 73
90 89 89 89 89 89 88 88 88 88 88 88 88 88 89 89 90 90 90 91 91 90 90 89 88 88 88 88 89 90 91 91 89 87 84 82 81 80 78 78 77 78 78 78 77 76 75 74 72 71 70 68 68 67 67 67 67 67 68 68 68 69 70 71 71 71 70 70 69 68 67 67 67 68 68 68 68 68 68 67 68 68 69 71 72 74
87 87 87 87 87 87 87 87 87 87 87 87 87 87 88 88 88 89 89 90 90 89 88 87 87 86 86 87 87 88 88 88 86 84 82 80 78 77 76 75 75 75 75 75 75 74 73 72 70 69 68 67 66 66 66 66 66 67 67 68 68 69 70 71 71 71 70 69 69 68 68 68 68 68 69 68 68 68 68 68 68 69 70 72 73 75
85 84 84 85 85 85 85 85 85 85 86 86 86 86 86 87 87 87 88 88 88 88 87 85 85 85 85 85 85 86 85 84 82 81 79 78 76 75 73 73 73 73 73 73 72 72 71 69 68 67 66 66 65 65 65 65 66 66 67 67 68 69 70 71 70 70 69 69 69 69 69 69 69 69 69 69 68 68 68 68 68 70 71 73 75 77
82 82 81 82 82 83 83 83 83 83 84 84 84 84 84 84 85 85 85 86 86 85 84 83 83 82 83 83 83 83 82 81 79 78 77 75 74 72 71 71 71 71 71 71 70 69 68 67 66 65 65 64 64 64 65 65 65 65 66 67 69 70 71 71 70 70 69 69 69 69 69 69 69 69 69 68 68 67 68 68 69 70 72 74 76 78
80 79 79 79 80 80 81 81 81 81 81 81 81 81 82 82 82 82 83 83 83 82 81 80 80 80 80 80 80 80 79 77 76 75 74 72 71 70 69 68 68 69 69 68 68 67 66 66 65 64 64 63 64 64 64 64 64 65 66 68 69 71 71 71 70 69 69 69 69 69 69 69 69 69 68 68 67 67 67 68 70 72 74 76 78 80
78 77 77 77 77 77 78 78 78 78 78 78 78 78 79 79 79 79 79 80 79 79 78 77 77 77 77 77 77 76 75 74 73 71 70 69 68 67 66 66 66 66 67 66 66 65 65 64 63 63 63 63 63 63 63 63 64 65 66 68 70 71 71 71 70 70 69 69 69 69 69 69 68 68 67 67 67 67 68 70 72 74 76 78 80 81
76 75 75 74 74 74 74 75 75 74 74 75 75 75 75 76 76 76 76 76 76 75 74 74 74 74 74 74 74 73 72 70 69 67 66 66 65 64 64 64 64 64 65 64 64 63 63 62 62 62 62 62 62 62 62 63 64 65 67 68 70 71 71 71 71 70 70 70 69 69 69 68 68 67 67 66 67 68 69 71 73 76 78 79 81 82
74 73 73 72 72 72 71 71 71 71 71 71 71 72 72 72 73 73 73 72 72 72 71 70 70 71 71 71 70 69 68 66 65 63 63 62 62 62 61 62 62 62 63 62 62 62 61 61 62 62 62 62 62 62 62 63 64 66 67 69 70 70 71 71 71 70 70 70 70 69 68 67 67 66 66 67 68 69 71 73 75 77 79 80 81 81
71 71 70 70 69 69 69 68 68 68 68 68 68 69 69 69 69 69 69 69 69 68 68 67 67 67 68 67 67 65 63 62 60 60 60 59 59 59 60 60 60 60 60 61 61 60 60 60 61 61 61 61 61 62 63 63 65 66 67 68 69 70 70 70 70 70 70 70 69 68 67 67 66 67 67 68 70 71 73 75 77 78 79 79 80 81
69 68 68 67 67 66 66 66 65 65 65 65 65 66 66 66 66 66 66 65 65 65 65 64 64 64 64 63 62 60 59 58 57 57 57 57 57 58 58 58 58 58 59 59 59 60 60 60 60 60 61 61 62 62 63 64 65 66 67 68 69 69 70 70 70 70 70 69 69 68 67 67 67 68 69 70 72 73 74 76 77 77 78 79 80 81
66 65 65 65 64 64 63 63 62 62 62 62 62 62 63 62 62 62 62 62 62 62 62 62 61 61 60 59 58 56 56 56 56 56 55 55 56 56 56 56 56 57 57 58 58 59 59 59 60 60 60 61 62 63 64 64 65 66 67 68 69 69 70 70 70 70 70 69 68 67 67 68 68 69 70 71 73 74 75 75 76 77 78 79 80 82
63 63 62 62 62 61 60 60 59 59 59 59 59 59 59 59 59 59 58 58 59 59 59 59 58 57 56 55 54 54 54 54 54 54 54 54 54 55 55 55 55 56 56 56 57 58 59 59 59 59 60 61 62 63 64 65 66 66 67 68 69 69 70 70 70 70 69 69 68 68 68 69 69 70 71 72 73 74 74 75 76 77 78 80 81 83
61 60 60 59 59 58 57 57 56 56 56 56 56 56 56 56 56 55 55 55 56 56 56 56 55 54 53 52 52 52 52 53 53 53 52 53 53 54 54 54 54 55 55 55 56 57 58 59 59 59 60 61 62 63 64 65 66 66 67 68 69 69 69 69 69 69 69 68 68 68 69 69 70 70 71 72 72 73 74 75 76 77 79 81 83 85
58 58 57 57 56 55 54 54 53 53 53 53 53 53 53 53 53 53 53 53 53 53 53 53 52 51 50 50 50 51 51 52 52 51 51 51 52 52 52 53 53 54 54 55 56 57 58 59 59 59 60 61 62 63 64 65 65 66 67 68 68 68 68 68 68 68 68 68 68 69 69 69 70 70 71 71 72 73 74 76 77 78 80 82 84 87
56 56 55 54 53 52 51 51 50 50 50 50 50 50 50 50 50 50 51 51 51 50 50 50 49 49 49 49 49 49 50 50 50 50 50 50 51 51 51 52 52 53 53 54 55 56 57 58 59 59 59 60 61 62 63 64 65 66 66 67 67 68 68 67 67 67 67 68 68 68 69 69 69 70 71 71 72 74 75 77 78 80 82 84 86 88
54 53 53 52 51 50 49 48 48 47 47 47 47 47 48 48 48 48 48 48 48 48 48 47 47 47 47 47 48 48 49 49 49 49 49 49 49 50 50 51 52 52 53 54 55 56 56 57 58 58 59 60 61 62 63 64 65 65 66 66 66 67 67 67 66 67 67 67 68 68 68 69 69 70 71 72 73 75 77 78 80 82 83 86 88 90
51 51 50 50 49 47 46 46 45 45 45 45 45 45 46 46 46 47 47 47 46 46 46 45 45 46 46 46 47 47 48 48 48 47 47 48 48 49 50 51 52 52 53 53 54 55 55 56 56 57 58 59 61 61 62 63 64 64 65 65 66 66 66 66 66 66 66 67 67 67 68 68 69 70 71 73 75 76 78 80 81 83 85 87 89 91
49 49 48 47 46 45 44 43 43 43 43 43 43 44 44 44 45 45 45 45 45 45 44 44 44 45 45 46 46 47 47 47 46 46 46 47 48 49 49 50 51 51 52 52 53 53 54 55 55 56 58 59 60 62 63 63 63 64 64 65 65 65 65 65 65 65 66 66 66 67 67 68 69 71 73 75 76 78 80 82 83 85 87 89 90 92
47 47 46 45 44 43 42 42 41 41 41 42 42 43 43 43 43 44 44 44 44 43 43 43 43 44 44 44 45 45 45 45 45 45 46 46 47 48 49 50 50 50 51 51 52 52 53 54 55 56 58 59 61 62 63 63 63 63 64 64 64 64 64 64 64 65 65 65 66 67 68 69 71 73 75 76 78 80 82 83 85 87 88 90 91 92
46 45 44 43 42 42 41 40 40 40 40 41 41 42 42 42 42 42 43 43 43 43 42 42 43 43 43 43 44 44 44 44 44 45 45 46 47 48 48 49 49 49 49 50 51 52 53 54 55 57 58 60 61 62 63 63 63 64 64 63 63 63 63 64 64 64 65 65 66 67 69 71 73 75 76 78 80 81 83 85 86 87 89 90 92 93
44 43 42 42 41 40 40 40 40 40 40 40 41 41 41 41 41 41 41 41 41 41 41 41 42 42 42 42 42 43 43 43 44 45 46 46 47 47 47 48 48 48 49 49 50 52 53 54 56 57 58 59 61 61 62 62 63 63 63 63 63 63 63 63 63 64 65 66 67 69 71 73 74 76 78 80 82 83 85 86 87 88 90 91 92 92
43 42 41 40 40 39 39 39 39 39 39 40 40 40 40 40 40 40 40 40 40 40 40 40 41 41 41 41 42 42 43 43 44 45 45 45 46 46 46 47 48 48 49 49 51 52 53 55 56 57 58 59 60 61 61 62 62 62 62 62 63 63 63 63 64 65 66 67 68 70 73 75 76 78 80 81 83 84 86 87 88 89 90 91 92 92
41 40 40 39 39 39 38 38 38 38 39 39 39 39 39 39 39 39 39 39 39 39 39 39 40 40 40 41 41 42 43 44 44 45 45 45 45 45 46 46 47 48 49 50 51 52 54 55 56 57 58 59 59 60 60 61 61 61 61 62 62 63 63 64 64 65 67 69 71 73 75 76 78 80 81 83 84 85 86 87 88 90 90 90 89 89
40 39 39 38 38 38 38 38 38 38 38 38 38 38 38 38 38 38 38 38 38 38 38 39 39 39 40 41 41 42 43 44 44 44 44 44 44 45 45 46 47 48 49 50 51 53 54 55 56 57 58 58 59 59 60 60 61 61 61 61 62 63 63 64 66 67 69 71 73 75 76 78 80 81 82 83 84 85 86 87 88 89 88 87 86 86
39 38 38 37 37 37 37 37 37 37 37 37 37 36 36 36 36 36 36 37 37 37 38 38 39 39 40 41 42 43 43 43 43 43 43 43 44 44 45 46 47 48 49 50 51 52 53 54 55 56 57 58 58 59 59 60 60 61 61 61 62 63 64 66 68 69 71 73 75 77 78 80 81 82 83 84 85 86 87 87 87 86 85 84 84 84
37 37 36 36 36 35 35 35 35 35 35 35 35 35 35 35 35 35 35 36 36 37 37 38 39 39 40 41 42 43 43 43 42 42 43 43 44 44 45 46 47 48 49 50 51 52 53 54 55 56 56 57 57 58 59 60 60 61 61 62 63 64 66 68 70 72 74 75 77 78 79 80 81 82 83 84 85 86 86 85 84 83 82 82 83 84
36 35 35 35 34 34 34 34 34 34 34 34 34 34 34 34 34 34 35 35 36 36 37 38 39 39 40 41 42 43 43 42 42 42 43 43 44 44 45 46 47 48 49 50 51 52 53 55 55 56 56 56 57 58 59 60 61 62 63 64 65 66 69 70 72 74 76 77 78 79 79 80 81 83 84 85 85 84 83 82 81 81 81 82 83 84
34 34 34 33 33 33 33 33 33 33 33 33 33 33 33 33 33 34 34 34 35 36 37 38 39 40 40 41 42 42 42 42 42 42 43 43 44 45 45 46 47 48 49 50 51 52 53 54 55 56 56 57 58 59 60 61 62 63 64 66 67 69 71 72 74 75 77 78 78 79 80 81 82 83 84 83 82 81 80 79 79 80 81 82 83 84
33 32 32 32 32 32 32 32 32 32 32 32 32 32 32 32 33 33 34 34 35 36 37 38 39 40 40 41 41 41 41 41 42 43 43 44 44 45 46 46 47 48 49 49 51 51 52 53 54 55 56 57 58 60 61 62 63 65 66 68 69 71 73 74 75 75 76 77 78 79 80 81 82 82 81 80 79 78 78 78 79 80 81 82 83 84
31 31 31 31 31 31 31 31 31 31 31 31 31 31 32 32 32 33 34 34 35 36 37 38 39 39 40 40 40 40 41 41 42 43 43 44 45 45 46 46 47 48 48 49 50 51 52 53 54 55 56 57 59 60 62 63 65 67 68 70 71 73 74 74 75 75 76 77 78 79 80 80 79 79 78 77 77 77 78 78 79 80 80 82 83 84
30 30 30 30 30 30 30 30 30 30 30 30 31 31 31 32 32 33 34 35 35 36 37 38 38 39 39 40 40 40 40 41 42 42 43 44 44 45 45 46 47 48 49 50 50 51 52 53 54 55 56 58 60 62 64 65 67 68 69 71 72 73 74 74 74 75 76 77 77 77 77 76 76 75 75 76 77 77 78 78 79 80 80 81 82 83
29 29 29 29 29 29 29 30 30 30 30 30 30 30 31 31 32 33 33 34 35 36 37 37 38 38 39 39 39 40 40 41 41 42 43 43 44 44 45 46 47 48 49 50 51 52 53 55 56 57 58 59 61 63 65 67 69 69 70 71 71 72 73 74 74 75 75 75 75 74 73 73 73 74 74 76 77 78 78 79 79 80 80 81 81 82
28 28 28 28 28 29 29 29 29 29 30 30 30 30 30 31 32 33 33 34 35 35 36 37 37 38 38 39 39 39 40 40 40 41 42 42 43 44 45 46 47 48 49 51 52 53 55 56 58 59 60 61 62 64 66 68 69 70 70 70 70 71 72 73 73 73 73 72 72 71 72 72 73 74 75 76 77 78 79 80 80 80 80 80 81 81
Wind_Direction
282 283 283 283 283 283 283 283 283 282 282 282 281 281 281 281 281 281 281 281 281 281 282 282 283 283 284 284 285 285 286 287 287 288 289 289 290 291 291 292 293 293 293 293 294 294 295 295 295 295 295 295 295 295 295 294 294 293 292 291 290 290 289 288 287 287 286 285 283 280 279 277 277 277 276 276 276 276 276 277 278 279 279 280 280 281
281 281 282 282 282 282 282 282 282 281 281 281 281 281 281 281 281 281 281 281 281 281 282 282 282 283 284 284 285 285 286 286 287 288 288 289 289 290 291 291 292 292 292 293 293 293 294 294 294 294 294 294 294 294 293 293 292 291 290 290 289 289 288 287 287 286 285 284 282 280 279 278 277 277 277 276 276 276 277 278 279 279 280 281 281 282
281 281 281 281 281 281 281 281 281 281 280 280 280 280 280 281 281 281 281 281 281 282 282 282 282 283 283 284 284 285 285 286 286 287 287 288 289 289 290 291 291 291 291 292 292 292 293 293 293 293 293 293 293 292 292 292 291 290 289 289 288 288 287 286 286 285 285 283 282 280 279 278 277 277 277 276 276 277 277 278 279 280 281 282 282 283
281 280 280 280 280 280 280 280 280 280 280 280 280 280 280 280 280 281 281 281 282 282 282 282 282 283 283 283 284 284 284 285 285 286 287 287 288 289 289 290 290 290 291 291 291 292 292 292 292 292 292 292 292 291 291 290 290 289 288 288 287 287 286 285 285 285 284 283 281 280 278 278 277 277 277 277 277 277 278 279 280 281 282 283 284 285
281 280 280 280 280 280 280 280 279 279 279 279 279 279 279 279 279 280 280 281 281 281 281 282 282 282 282 282 283 283 283 284 284 285 286 286 287 288 288 289 289 290 290 290 291 291 291 291 291 291 291 291 290 290 290 289 289 288 287 287 286 285 285 285 284 284 283 282 280 279 278 277 277 277 277 277 277 277 278 279 280 281 283 284 285 286
281 280 280 280 280 279 279 279 279 279 279 279 279 278 278 278 278 279 279 279 280 280 280 281 281 281 281 282 282 282 283 283 284 284 285 286 286 287 288 288 289 289 289 290 290 290 290 290 290 290 290 289 289 289 289 289 288 287 286 286 285 284 284 284 284 283 282 281 280 278 278 277 277 277 277 277 277 278 278 279 281 282 283 285 286 287
281 280 280 280 279 279 279 279 279 279 279 279 278 278 278 278 278 278 278 279 279 279 280 280 280 281 281 281 281 281 282 282 283 284 284 285 286 286 287 287 288 288 289 289 289 289 289 289 289 289 288 288 288 288 288 288 287 286 285 285 284 283 283 283 283 282 281 280 279 278 277 277 277 277 277 278 278 278 279 280 281 283 284 285 287 289
281 280 280 279 279 279 279 278 278 278 278 278 278 278 278 278 278 278 278 278 278 279 279 279 279 280 280 280 280 281 281 282 283 283 284 284 285 286 286 287 287 287 288 288 288 288 288 288 288 288 287 287 287 287 287 286 286 285 284 283 283 282 282 282 282 282 281 279 279 278 277 277 277 278 278 278 278 279 279 280 282 283 285 286 288 290
280 280 279 279 279 278 278 278 278 278 278 278 278 278 278 278 278 278 278 278 278 278 278 278 279 279 279 280 280 280 281 282 282 283 283 284 284 285 285 286 286 287 287 287 287 287 287 287 287 286 286 286 286 286 286 285 285 284 283 282 282 281 281 282 282 281 280 279 278 277 277 277 278 278 279 279 279 279 280 281 282 284 286 287 289 291
280 279 279 279 278 278 278 278 278 278 278 277 277 277 277 277 277 277 277 277 277 277 277 277 278 278 279 279 280 280 281 281 282 282 283 283 284 284 285 285 285 286 286 286 286 286 286 286 285 285 285 285 285 285 284 284 283 283 282 281 281 280 281 281 281 280 279 278 278 277 277 277 278 279 279 279 280 280 281 282 283 285 286 288 290 292
279 279 279 278 278 278 278 277 277 277 277 277 277 277 277 277 277 277 277 276 276 276 276 276 277 277 278 278 279 280 280 281 281 282 282 283 283 284 284 284 285 285 285 285 285 285 284 284 284 284 284 284 284 283 283 283 282 281 280 280 279 280 280 280 280 280 279 278 277 277 277 277 278 279 279 280 280 281 282 283 284 286 287 289 291 293
279 279 278 278 278 278 277 277 277 277 277 277 277 277 277 276 276 276 276 276 275 275 275 276 276 276 277 278 279 280 280 280 281 281 282 282 283 283 283 284 284 284 284 284 283 283 283 283 283 283 283 283 283 282 282 281 281 280 279 279 278 278 279 279 279 279 278 278 277 277 277 277 278 279 280 280 281 282 282 283 285 287 289 291 292 294
279 279 278 278 278 277 277 277 277 277 276 276 276 276 276 276 275 275 275 275 275 274 275 275 275 276 277 277 278 279 279 280 280 280 281 281 282 282 283 283 283 283 283 282 282 282 282 282 282 282 282 282 281 281 281 280 279 279 278 277 277 277 278 278 278 278 278 278 278 277 278 278 278 279 280 281 281 282 283 284 286 288 290 292 293 294
279 278 278 278 277 277 277 277 276 276 276 276 276 275 275 275 275 274 274 274 274 274 274 274 275 275 276 277 277 278 278 279 279 280 280 281 281 282 282 282 282 282 281 281 281 281 280 281 281 281 281 281 280 280 279 279 278 277 277 276 276 276 277 277 277 277 277 278 278 278 278 278 279 279 280 281 282 283 284 285 287 289 291 293 294 294
279 278 278 278 277 277 277 277 276 276 276 275 275 275 275 274 274 274 274 274 274 274 274 274 274 275 275 276 277 277 277 278 278 279 279 280 281 281 281 281 281 281 280 280 279 279 279 279 279 280 280 279 279 279 278 277 276 276 275 275 275 275 275 275 276 276 277 277 278 278 278 279 279 280 281 281 282 284 285 287 289 290 292 293 294 294
278 278 278 277 277 277 277 276 276 276 275 275 275 274 274 274 273 273 273 273 273 273 273 274 274 274 275 275 276 276 276 277 277 278 279 279 280 280 280 280 280 279 279 278 278 278 278 278 278 278 278 278 278 277 277 276 275 274 274 274 274 274 274 274 275 275 276 277 277 278 278 279 279 280 281 282 283 284 286 288 290 291 292 293 294 295
278 278 277 277 277 277 276 276 276 275 275 274 274 274 273 273 273 272 272 272 273 273 273 273 274 274 274 275 275 275 275 276 277 277 278 279 279 279 279 279 278 278 277 277 277 277 277 277 277 277 277 277 277 276 275 274 274 273 273 272 272 273 273 273 274 275 275 276 277 278 278 279 280 280 281 282 284 285 287 289 290 291 293 294 294 295
278 277 277 277 277 276 276 275 275 275 274 274 273 273 272 272 272 272 272 272 272 272 273 273 273 273 274 274 274 274 274 275 276 277 278 278 278 278 278 277 277 276 276 276 276 276 276 276 276 276 276 276 276 275 274 273 272 272 272 272 271 271 271 272 273 274 275 276 277 278 278 279 280 281 282 283 284 286 288 289 290 292 293 294 295 295
277 277 277 276 276 276 275 275 274 274 273 273 272 272 272 271 271 271 271 272 272 272 272 272 272 273 273 272 273 273 274 274 275 276 277 277 277 277 276 276 275 275 275 275 275 275 275 275 275 275 275 275 274 274 273 272 271 271 271 271 270 270 271 271 272 273 275 276 277 278 278 279 280 281 282 283 285 287 288 290 291 292 293 294 295 295
277 276 276 276 275 275 274 274 274 273 273 272 272 271 271 271 271 271 271 271 271 271 271 272 272 272 272 272 272 272 273 274 275 275 276 276 275 275 275 274 274 273 273 273 273 274 274 274 274 274 274 274 273 272 272 271 270 270 270 270 270 270 270 271 272 273 274 275 276 277 278 279 280 281 282 284 286 287 289 291 292 293 294 295 295 295
276 276 276 275 275 274 274 273 273 272 272 272 271 271 271 270 270 270 270 271 271 271 271 271 271 271 271 271 271 272 273 273 274 274 274 274 274 273 273 272 272 272 272 272 272 273 273 273 273 273 273 272 272 271 270 270 269 269 269 269 269 269 270 270 271 272 274 275 276 277 278 279 280 281 283 285 287 289 290 292 293 294 294 294 295 295
276 276 275 275 274 274 273 273 272 272 272 271 271 271 270 270 270 270 270 270 270 270 270 270 270 270 270 271 271 271 272 272 272 273 273 272 272 272 272 271 271 271 271 271 271 271 272 272 272 272 272 271 270 270 269 269 268 268 268 268 268 269 269 270 271 272 273 274 276 277 278 279 280 282 284 286 288 290 291 293 293 294 294 294 294 294
277 276 275 274 274 273 273 272 272 272 271 271 271 270 270 270 270 269 269 269 270 270 270 270 270 270 270 270 270 270 271 271 271 271 271 271 271 271 270 270 270 269 270 270 270 270 271 271 271 271 270 270 269 269 268 268 267 267 267 267 268 269 269 270 271 272 273 274 276 277 278 279 281 283 285 287 289 291 292 293 293 292 292 293 293 294
277 276 275 274 274 273 273 272 272 272 271 271 271 270 270 270 269 269 269 269 269 269 269 269 269 269 269 269 269 269 270 270 270 271 271 270 270 270 269 269 268 268 268 269 269 269 270 270 270 269 269 268 268 268 267 267 266 266 266 266 267 268 270 271 272 273 274 275 276 277 279 280 282 284 286 288 290 291 291 291 291 291 291 292 293 294
278 277 276 275 274 274 273 272 272 272 271 271 270 270 270 269 269 269 269 269 269 269 269 269 268 268 268 268 268 269 269 270 270 270 270 269 269 268 268 267 267 267 267 268 268 268 268 268 268 268 268 267 267 266 266 265 265 265 265 266 267 268 270 271 272 273 274 275 276 278 279 281 283 285 287 288 289 289 289 289 290 290 291 292 294 295
278 278 277 276 275 274 274 273 272 272 271 271 270 270 269 269 269 269 269 269 269 268 268 268 268 267 267 268 268 268 269 269 269 269 268 267 267 267 266 266 266 266 266 267 267 267 267 267 267 267 266 266 265 265 264 264 264 264 265 265 267 268 270 271 272 273 275 276 277 278 280 281 283 285 286 287 287 287 288 288 289 291 292 293 295 296
278 278 277 276 276 275 274 273 273 272 271 271 270 269 269 269 269 268 268 268 268 268 268 267 267 267 267 267 267 268 268 268 268 267 266 265 265 265 264 264 264 265 265 265 266 265 265 266 266 266 265 265 264 264 263 263 263 263 264 266 267 268 270 271 272 273 275 276 277 279 280 282 283 284 285 285 286 286 288 289 290 292 293 294 296 297
278 278 277 276 276 275 274 274 273 272 272 271 270 270 269 268 268 268 268 268 268 267 267 267 266 266 266 266 267 267 267 266 265 264 264 263 263 263 263 263 263 263 264 264 264 265 265 265 265 264 264 263 263 263 262 262 263 263 264 266 267 268 269 271 272 273 275 276 278 279 280 281 282 283 283 284 286 287 289 290 292 293 295 296 297 298
278 277 277 276 276 275 274 274 273 272 272 271 270 270 269 268 268 268 268 267 267 266 266 266 265 265 265 266 266 265 264 263 262 262 262 261 261 261 261 262 262 262 262 263 263 264 264 264 263 263 263 262 262 262 262 262 263 263 264 266 267 268 269 271 272 274 276 277 278 279 280 281 282 283 284 286 287 289 290 292 293 295 296 297 298 299
278 277 276 276 275 275 274 274 273 272 272 271 270 270 269 268 268 267 267 266 266 265 265 265 265 265 264 264 264 263 262 261 261 260 260 260 260 260 261 260 261 261 261 262 262 263 263 263 263 262 261 261 261 261 261 262 263 263 264 266 267 268 270 272 273 275 277 278 279 280 281 282 283 284 286 288 290 291 292 294 295 296 297 297 298 298
277 277 276 275 275 275 274 274 273 272 272 271 270 270 269 268 268 267 266 265 264 264 264 264 264 264 263 263 262 261 260 260 259 260 259 259 259 260 260 260 260 261 261 261 261 261 262 262 262 261 261 260 260 261 261 262 263 264 265 266 268 269 271 273 274 276 278 279 280 281 282 284 285 287 289 290 292 293 294 295 295 296 296 297 297 297
277 276 276 275 275 275 274 274 273 272 271 271 270 269 268 268 267 266 265 264 264 263 263 263 263 263 262 261 260 260 259 259 259 259 259 258 259 259 260 260 260 260 261 261 260 261 261 262 262 261 260 260 260 260 261 262 263 264 266 267 269 270 272 274 275 277 279 280 281 283 284 286 288 289 291 292 293 294 294 294 295 295 296 296 296 297
276 276 276 275 275 275 274 273 272 272 271 270 269 269 268 267 266 265 264 263 263 262 262 262 262 262 261 260 260 259 259 259 259 259 259 259 259 259 260 260 260 260 260 260 260 260 260 261 261 261 260 259 260 260 261 262 263 265 266 268 269 271 273 275 276 278 279 281 282 284 286 288 290 291 292 292 293 293 293 294 294 295 295 295 296 296
276 276 275 275 275 274 274 273 272 271 270 269 268 267 266 266 265 264 263 263 262 262 261 261 261 261 260 260 259 259 259 259 259 259 259 259 259 260 260 259 259 259 259 260 260 260 260 260 260 260 259 259 259 260 261 262 264 265 267 268 270 272 274 275 277 278 280 282 284 286 288 289 290 291 291 292 292 292 292 293 293 294 295 295 295 296
275 275 275 275 275 274 273 272 271 270 269 268 267 266 265 264 264 263 263 262 262 261 261 261 260 260 259 259 259 259 259 259 259 259 259 259 259 259 260 259 260 260 260 260 260 260 259 259 258 258 258 258 258 259 260 262 263 265 267 269 270 272 274 276 277 279 281 283 285 287 288 289 290 290 290 290 291 291 292 292 293 294 294 295 295 296
274 274 274 274 274 274 273 271 270 269 268 267 265 265 264 263 263 262 262 262 261 261 261 260 260 259 259 259 259 259 259 259 260 259 259 259 259 259 259 260 260 260 260 260 260 259 258 258 257 257 256 257 257 258 260 262 263 265 267 269 271 272 274 276 278 280 282 284 285 287 288 288 289 289 289 289 290 291 291 292 293 293 294 295 296 297
274 274 274 274 273 273 272 271 269 268 266 265 264 263 263 262 262 262 261 261 261 261 261 260 260 259 259 259 259 259 260 260 260 259 259 259 259 259 260 260 261 261 260 259 258 258 257 256 256 255 255 256 257 258 260 262 264 265 267 269 271 273 275 277 279 280 282 284 285 286 287 287 287 287 288 289 289 290 291 292 292 293 294 295 296 297
274 274 273 273 272 272 271 269 268 266 265 264 263 262 262 261 261 261 261 261 261 261 261 260 260 260 260 260 260 260 260 260 259 259 259 259 259 259 260 260 260 260 258 257 256 256 255 255 255 255 255 256 257 258 260 262 264 266 268 270 272 274 275 277 279 281 283 284 285 285 286 286 286 287 287 288 289 290 291 292 293 294 295 296 297 297
274 273 273 272 271 270 269 268 266 265 264 263 262 262 261 261 261 261 261 261 261 261 261 261 260 260 260 260 260 260 260 259 259 259 259 259 260 260 260 260 259 258 257 256 255 254 253 254 254 255 256 257 259 260 261 263 265 267 269 271 273 275 276 278 280 281 282 283 284 284 285 285 286 286 287 288 289 290 291 292 293 294 295 296 297 297
273 273 272 271 270 269 268 267 266 265 264 263 262 262 261 261 261 261 261 261 261 261 261 260 260 260 260 260 260 260 259 259 259 260 260 260 260 260 260 259 258 257 256 255 254 253 253 253 255 256 257 258 260 261 263 264 266 268 270 272 273 275 277 279 280 281 282 283 283 283 284 284 285 286 287 288 289 290 291 292 294 295 295 296 297 297
273 272 271 270 269 268 267 266 265 264 263 263 262 262 261 261 261 261 261 261 260 260 260 260 259 259 259 259 259 259 259 259 260 261 261 261 261 260 259 258 257 257 256 255 254 253 253 254 255 256 258 259 261 262 264 266 267 269 271 272 274 276 278 279 280 281 281 282 282 283 283 284 285 286 287 288 289 290 292 293 294 295 295 296 296 297
272 271 271 270 269 268 267 266 265 264 263 263 262 262 262 262 261 261 260 260 259 259 259 259 258 258 258 258 258 258 259 259 260 261 261 261 261 260 259 258 257 256 256 255 255 254 255 255 256 257 259 260 262 264 265 267 268 270 271 273 275 276 278 279 279 280 281 281 282 282 283 284 285 286 287 289 290 291 292 293 294 294 295 295 296 297
272 271 270 269 268 267 266 266 265 264 263 263 262 262 262 261 260 260 259 259 258 258 258 257 257 257 257 257 257 258 259 260 260 261 260 260 260 259 258 258 257 257 256 256 256 256 257 257 258 259 260 262 263 265 266 268 269 271 272 274 275 277 277 278 279 279 280 281 281 282 283 284 285 287 288 290 291 292 292 293 293 294 295 295 296 297
271 271 270 269 268 267 266 265 264 264 263 263 262 261 261 260 259 258 258 258 257 257 256 256 256 256 256 256 257 258 259 259 260 259 259 259 258 258 257 257 257 257 257 257 257 257 258 259 260 261 263 264 265 266 267 269 270 272 273 275 275 276 277 277 278 279 280 280 281 282 283 285 286 288 289 290 291 291 292 292 293 294 295 296 297 297
271 270 269 269 268 267 266 265 264 263 263 262 261 261 260 259 258 257 257 256 256 255 255 255 255 255 255 255 257 258 259 259 258 258 257 257 257 257 257 257 257 258 258 258 259 259 260 260 261 263 264 265 266 267 268 270 271 272 273 275 275 276 276 277 278 279 279 280 282 283 285 286 288 289 290 290 291 291 292 292 293 294 295 296 297 298
271 270 269 268 267 266 265 264 264 263 262 261 260 259 258 257 257 256 256 255 255 254 254 254 254 254 255 256 258 259 259 258 257 256 255 255 256 256 257 257 258 259 259 260 261 261 262 262 263 264 266 266 267 268 269 270 271 272 273 274 275 275 276 277 277 279 280 281 283 285 286 287 288 289 289 290 290 291 292 293 294 295 296 297 298 299
271 270 269 268 267 265 264 263 262 261 260 260 259 258 257 256 256 255 255 254 254 254 254 254 255 255 255 257 258 259 258 257 256 256 255 255 255 256 257 258 259 260 261 262 263 263 264 265 266 266 267 268 269 270 270 271 272 272 273 273 274 275 275 276 278 279 281 283 284 286 287 288 288 288 289 289 290 291 292 294 295 296 297 298 299 299
270 269 268 267 265 264 263 262 261 260 259 258 257 257 256 255 255 255 254 254 254 254 254 254 255 255 256 257 258 258 258 257 256 256 255 255 256 256 257 258 259 260 262 263 264 265 266 267 267 268 268 269 270 271 271 272 272 272 273 273 274 275 276 277 279 281 283 284 285 286 287 287 288 288 289 290 291 292 294 295 296 297 298 298 299 299
269 268 267 266 264 263 261 260 260 258 257 257 256 256 255 255 254 254 254 254 254 254 254 255 255 256 257 257 258 258 257 256 256 256 256 256 256 257 258 258 260 261 262 263 264 265 266 267 268 269 269 270 270 271 271 272 272 273 273 274 275 276 278 280 282 283 284 285 286 286 287 287 288 289 290 291 292 294 295 296 297 298 298 298 298 298
268 266 265 264 262 261 260 259 258 257 256 256 255 255 255 254 254 254 254 254 255 255 255 255 256 256 256 257 257 257 256 256 256 256 256 256 256 257 258 259 260 261 262 263 264 265 266 267 267 268 269 270 270 270 271 271 272 273 274 276 277 279 280 282 283 284 285 285 286 286 287 288 289 290 291 293 294 295 297 298 298 298 298 298 298 297
266 265 263 262 261 259 258 258 257 257 256 256 255 255 255 254 254 254 254 254 254 255 255 256 256 256 256 256 256 256 256 256 255 256 256 256 257 257 258 259 259 260 261 262 263 264 265 266 267 267 268 269 270 270 271 272 273 275 277 279 280 282 283 283 284 284 285 286 286 287 288 290 291 292 293 295 296 297 298 298 298 298 297 297 297 296
Height
10419 10417 10417 10416 10414 10412 10411 10411 10410 10408 10405 10404 10404 10402 10401 10398 10395 10392 10391 10391 10390 10387 10385 10383 10382 10381 10380 10379 10377 10376 10373 10371 10369 10367 10367 10366 10364 10363 10362 10361 10360 10357 10356 10352 10350 10347 10344 10342 10339 10336 10334 10332 10330 10328 10326 10324 10322 10321 10319 10317 10316 10316 10316 10315 10314 10314 10314 10314 10314 10313 10312 10312 10312 10311 10310 10309 10309 10308 10307 10307 10306 10306 10306 10304 10304 10302
10411 10409 10408 10407 10406 10403 10401 10401 10401 10399 10396 10394 10393 10392 10391 10388 10385 10383 10382 10382 10381 10380 10378 10376 10374 10373 10372 10371 10369 10367 10366 10363 10361 10359 10358 10357 10356 10356 10354 10353 10352 10349 10347 10345 10342 10341 10337 10335 10332 10330 10327 10326 10324 10322 10321 10318 10316 10314 10312 10311 10310 10310 10309 10309 10308 10308 10308 10308 10307 10307 10307 10306 10306 10306 10305 10304 10303 10302 10302 10302 10301 10301 10300 10299 10298 10297
10402 10399 10397 10397 10396 10394 10392 10391 10391 10389 10387 10386 10384 10382 10381 10379 10376 10374 10372 10372 10371 10371 10369 10367 10366 10365 10364 10362 10361 10359 10357 10355 10352 10351 10350 10349 10349 10349 10347 10346 10343 10341 10339 10337 10335 10333 10331 10327 10325 10322 10321 10319 10317 10316 10314 10312 10310 10307 10306 10304 10303 10302 10302 10302 10302 10302 10302 10302 10302 10301 10301 10301 10300 10299 10299 10298 10297 10297 10297 10296 10296 10295 10294 10293 10292 10291
10392 10390 10387 10386 10386 10385 10384 10382 10381 10379 10377 10376 10374 10374 10372 10370 10368 10366 10364 10363 10362 10361 10359 10357 10356 10356 10354 10354 10352 10351 10349 10347 10345 10343 10342 10341 10341 10341 10340 10338 10336 10333 10331 10329 10327 10325 10322 10320 10317 10315 10312 10311 10310 10309 10307 10306 10304 10301 10299 10297 10296 10296 10296 10296 10296 10296 10296 10296 10296 10296 10295 10295 10294 10294 10293 10292 10292 10291 10291 10290 10289 10289 10288 10287 10286 10285
10381 10379 10377 10376 10376 10375 10374 10372 10371 10369 10367 10366 10364 10364 10362 10361 10360 10358 10356 10355 10353 10352 10349 10347 10346 10345 10345 10344 10343 10342 10341 10339 10337 10336 10334 10334 10333 10333 10332 10331 10329 10326 10322 10321 10319 10317 10315 10313 10311 10308 10306 10303 10302 10301 10301 10299 10297 10295 10293 10291 10290 10289 10289 10289 10289 10290 10290 10290 10290 10289 10289 10289 10289 10288 10287 10287 10286 10286 10285 10284 10284 10283 10282 10281 10280 10279
10369 10369 10367 10366 10364 10364 10363 10362 10361 10359 10357 10356 10354 10353 10352 10352 10351 10350 10348 10347 10345 10342 10341 10338 10336 10335 10334 10334 10333 10332 10331 10331 10329 10328 10327 10326 10325 10325 10324 10324 10321 10317 10314 10312 10310 10309 10307 10306 10304 10301 10298 10296 10295 10294 10294 10292 10290 10288 10286 10284 10283 10282 10282 10282 10283 10284 10284 10284 10284 10284 10284 10284 10283 10282 10282 10281 10281 10280 10279 10279 10277 10277 10276 10275 10274 10272
10356 10357 10356 10355 10354 10353 10352 10352 10351 10349 10347 10346 10343 10342 10342 10342 10342 10341 10339 10338 10336 10334 10332 10329 10327 10326 10325 10324 10323 10322 10322 10321 10321 10320 10319 10319 10318 10317 10316 10316 10314 10310 10307 10304 10302 10301 10299 10299 10297 10294 10291 10289 10288 10287 10287 10286 10284 10281 10279 10278 10277 10276 10276 10276 10277 10278 10279 10279 10279 10278 10278 10277 10277 10277 10276 10276 10275 10274 10273 10272 10272 10271 10270 10269 10267 10266
10344 10344 10344 10344 10343 10342 10341 10341 10341 10340 10337 10335 10333 10331 10331 10331 10331 10331 10330 10329 10327 10326 10323 10321 10319 10317 10316 10314 10314 10313 10312 10312 10312 10312 10311 10311 10311 10310 10309 10307 10306 10302 10300 10297 10295 10293 10292 10291 10290 10287 10285 10283 10282 10281 10279 10279 10277 10275 10273 10272 10271 10269 10269 10269 10271 10272 10273 10273 10272 10272 10272 10272 10271 10271 10271 10270 10269 10268 10267 10267 10266 10265 10264 10263 10262 10260
10333 10332 10332 10332 10332 10331 10330 10329 10329 10329 10328 10325 10323 10321 10321 10321 10321 10320 10320 10319 10318 10316 10314 10312 10310 10307 10306 10304 10304 10304 10304 10304 10304 10304 10303 10303 10302 10302 10301 10299 10297 10295 10292 10290 10287 10286 10284 10283 10282 10281 10279 10277 10275 10274 10272 10272 10271 10269 10267 10266 10264 10263 10262 10263 10264 10266 10267 10267 10267 10266 10266 10266 10266 10266 10265 10264 10264 10262 10262 10261 10260 10259 10258 10257 10256 10254
10322 10322 10321 10321 10321 10321 10321 10319 10318 10318 10318 10316 10313 10312 10312 10312 10311 10309 10309 10309 10308 10307 10306 10304 10301 10299 10297 10296 10296 10296 10296 10296 10295 10295 10295 10294 10294 10294 10292 10292 10290 10287 10286 10282 10281 10279 10277 10275 10274 10274 10272 10271 10269 10268 10267 10266 10264 10264 10262 10261 10259 10257 10257 10257 10258 10260 10261 10261 10261 10261 10261 10260 10260 10259 10259 10259 10257 10257 10256 10254 10254 10253 10252 10251 10249 10247
10311 10311 10310 10309 10309 10309 10310 10309 10309 10307 10307 10306 10304 10302 10302 10302 10301 10300 10299 10298 10298 10297 10296 10294 10292 10291 10289 10287 10287 10288 10287 10286 10286 10286 10286 10286 10286 10286 10285 10284 10282 10280 10278 10276 10273 10271 10270 10268 10267 10267 10266 10264 10263 10262 10261 10260 10259 10259 10257 10256 10254 10252 10251 10251 10252 10254 10254 10255 10255 10255 10254 10254 10254 10254 10253 10252 10252 10251 10249 10249 10247 10247 10246 10244 10243 10241
10299 10299 10299 10299 10299 10299 10299 10299 10299 10298 10297 10296 10294 10292 10292 10292 10291 10291 10290 10288 10287 10287 10286 10284 10283 10282 10281 10279 10280 10280 10278 10277 10276 10276 10277 10277 10277 10277 10277 10276 10274 10272 10270 10268 10266 10264 10263 10261 10261 10260 10259 10258 10257 10256 10254 10254 10254 10253 10252 10251 10249 10247 10246 10246 10247 10247 10248 10249 10249 10249 10249 10249 10249 10248 10247 10247 10246 10244 10244 10242 10242 10241 10240 10238 10237 10235
10288 10288 10288 10287 10288 10289 10289 10288 10288 10288 10287 10287 10286 10284 10282 10281 10281 10281 10280 10277 10277 10277 10277 10276 10274 10274 10272 10272 10272 10272 10270 10267 10267 10267 10269 10269 10269 10269 10269 10267 10266 10264 10262 10261 10259 10257 10256 10255 10254 10253 10252 10252 10251 10249 10248 10247 10247 10247 10246 10246 10244 10242 10241 10241 10241 10241 10242 10242 10242 10242 10243 10243 10242 10242 10241 10241 10239 10239 10237 10236 10236 10235 10234 10232 10230 10228
10277 10277 10278 10277 10277 10278 10279 10279 10279 10277 10277 10277 10276 10274 10272 10272 10271 10271 10269 10267 10267 10267 10268 10267 10266 10266 10265 10264 10264 10264 10262 10260 10259 10259 10260 10261 10261 10261 10261 10259 10257 10256 10255 10253 10251 10249 10249 10249 10248 10246 10246 10246 10245 10244 10242 10242 10241 10241 10241 10240 10239 10237 10236 10236 10236 10236 10236 10236 10236 10237 10237 10237 10237 10236 10236 10234 10234 10232 10231 10231 10229 10229 10227 10226 10224 10222
10266 10267 10267 10267 10267 10268 10269 10269 10269 10268 10266 10267 10267 10265 10264 10262 10261 10261 10259 10258 10257 10257 10259 10258 10257 10257 10258 10257 10256 10255 10254 10252 10251 10252 10252 10252 10253 10254 10254 10252 10250 10248 10248 10247 10244 10242 10242 10242 10241 10239 10239 10239 10238 10237 10237 10236 10236 10236 10236 10234 10234 10232 10231 10231 10230 10230 10229 10230 10231 10231 10231 10231 10231 10231 10230 10229 10227 10227 10226 10225 10224 10222 10221 10219 10217 10216
10256 10256 10256 10256 10256 10257 10258 10259 10259 10258 10257 10257 10257 10257 10257 10255 10251 10249 10249 10248 10247 10248 10249 10249 10249 10249 10249 10249 10248 10247 10246 10244 10244 10244 10245 10245 10246 10247 10247 10246 10243 10241 10239 10239 10237 10236 10236 10236 10234 10233 10232 10232 10231 10231 10231 10230 10230 10230 10230 10229 10229 10228 10227 10226 10225 10224 10224 10224 10225 10226 10226 10226 10226 10225 10224 10223 10222 10221 10220 10219 10218 10217 10215 10214 10211 10209
10246 10246 10246 10246 10246 10247 10247 10247 10247 10247 10246 10246 10246 10246 10246 10244 10242 10241 10241 10239 10238 10239 10239 10240 10241 10241 10241 10241 10239 10238 10237 10236 10236 10236 10239 10238 10238 10239 10240 10240 10237 10234 10232 10231 10230 10229 10229 10228 10227 10227 10227 10226 10226 10226 10225 10224 10224 10224 10224 10224 10224 10223 10222 10221 10219 10219 10219 10219 10220 10221 10221 10221 10220 10219 10218 10217 10216 10215 10214 10214 10212 10211 10209 10207 10205 10202
10235 10236 10236 10236 10236 10236 10237 10237 10237 10236 10236 10236 10235 10234 10233 10233 10232 10232 10231 10230 10230 10230 10231 10231 10232 10233 10233 10233 10231 10229 10229 10229 10229 10229 10231 10231 10231 10231 10232 10232 10229 10226 10224 10223 10222 10222 10222 10221 10221 10221 10221 10221 10221 10220 10219 10219 10218 10218 10218 10218 10218 10217 10217 10216 10214 10214 10214 10214 10215 10215 10216 10215 10214 10214 10212 10212 10211 10210 10209 10208 10207 10205 10203 10201 10199 10196
10225 10226 10226 10226 10226 10226 10226 10226 10226 10226 10225 10224 10224 10224 10222 10222 10222 10222 10221 10221 10221 10221 10222 10223 10224 10224 10224 10224 10222 10221 10221 10221 10221 10222 10224 10223 10223 10224 10224 10222 10221 10218 10217 10216 10215 10215 10216 10215 10215 10215 10215 10215 10215 10214 10214 10213 10212 10212 10213 10213 10212 10212 10211 10210 10209 10209 10209 10209 10210 10210 10210 10210 10209 10208 10207 10206 10206 10205 10204 10202 10201 10199 10197 10195 10192 10190
10216 10217 10217 10216 10216 10215 10215 10216 10216 10216 10215 10214 10214 10214 10212 10212 10212 10212 10211 10211 10211 10212 10214 10215 10216 10215 10215 10214 10214 10213 10214 10214 10214 10215 10215 10216 10216 10216 10216 10215 10212 10211 10209 10209 10208 10209 10209 10209 10209 10209 10209 10209 10209 10208 10207 10207 10207 10207 10207 10207 10207 10207 10206 10204 10204 10204 10204 10205 10205 10205 10205 10204 10203 10202 10202 10201 10201 10199 10198 10197 10195 10193 10191 10189 10186 10184
10207 10207 10207 10207 10206 10205 10204 10205 10206 10206 10204 10204 10204 10204 10202 10203 10203 10202 10202 10202 10202 10204 10205 10206 10207 10207 10206 10206 10206 10206 10206 10207 10207 10207 10207 10207 10208 10209 10209 10207 10206 10204 10202 10202 10202 10202 10203 10203 10204 10204 10204 10204 10203 10202 10202 10202 10202 10202 10202 10202 10202 10201 10200 10199 10199 10200 10201 10201 10201 10200 10199 10199 10198 10197 10196 10196 10195 10194 10192 10191 10189 10187 10185 10182 10180 10178
10197 10198 10198 10198 10197 10195 10194 10195 10196 10195 10195 10196 10196 10195 10193 10194 10194 10194 10193 10194 10195 10195 10196 10197 10198 10199 10199 10198 10198 10198 10199 10199 10199 10200 10201 10201 10201 10201 10201 10201 10199 10197 10196 10196 10196 10196 10197 10197 10197 10197 10198 10198 10197 10197 10197 10197 10197 10198 10197 10197 10196 10195 10194 10194 10195 10196 10196 10196 10196 10195 10194 10193 10192 10192 10191 10191 10189 10188 10186 10185 10183 10181 10179 10177 10174 10172
10186 10187 10188 10188 10187 10186 10185 10185 10186 10186 10186 10187 10186 10185 10184 10186 10186 10186 10185 10187 10187 10188 10188 10189 10190 10191 10191 10190 10190 10191 10191 10192 10192 10194 10196 10194 10193 10193 10194 10193 10192 10191 10189 10190 10190 10191 10191 10192 10192 10192 10192 10192 10192 10192 10192 10192 10193 10193 10192 10192 10191 10189 10189 10190 10191 10192 10192 10192 10191 10190 10189 10188 10187 10187 10186 10185 10184 10182 10181 10179 10177 10176 10173 10171 10169 10167
10176 10177 10178 10178 10177 10177 10176 10176 10176 10177 10177 10177 10176 10176 10176 10177 10177 10177 10177 10179 10179 10181 10182 10182 10182 10183 10182 10182 10183 10184 10184 10186 10187 10189 10189 10187 10186 10187 10187 10187 10186 10184 10183 10184 10185 10185 10186 10186 10187 10187 10187 10186 10186 10186 10187 10187 10188 10188 10187 10186 10185 10184 10184 10185 10186 10187 10187 10186 10186 10185 10184 10183 10182 10182 10181 10180 10179 10177 10176 10174 10172 10170 10168 10166 10163 10161
10165 10166 10167 10168 10168 10168 10167 10167 10167 10168 10168 10168 10168 10167 10167 10167 10167 10168 10169 10170 10171 10172 10174 10176 10176 10174 10174 10175 10176 10177 10177 10179 10182 10182 10181 10179 10179 10180 10180 10180 10179 10178 10177 10178 10179 10180 10181 10181 10181 10181 10181 10181 10181 10181 10182 10182 10183 10183 10182 10181 10180 10179 10180 10181 10181 10182 10181 10181 10180 10179 10179 10178 10177 10177 10176 10175 10174 10172 10171 10169 10167 10165 10162 10160 10157 10155
10156 10156 10157 10158 10159 10159 10159 10159 10159 10160 10160 10161 10160 10160 10160 10160 10160 10161 10161 10162 10162 10164 10166 10167 10167 10167 10167 10169 10169 10170 10171 10174 10175 10174 10173 10173 10173 10173 10173 10173 10173 10172 10172 10172 10174 10174 10176 10176 10175 10176 10176 10176 10176 10176 10177 10177 10177 10177 10177 10176 10176 10176 10176 10176 10176 10176 10176 10176 10175 10175 10174 10174 10173 10172 10171 10170 10169 10167 10166 10164 10161 10159 10157 10154 10152 10149
10147 10148 10149 10149 10150 10150 10151 10151 10151 10152 10152 10152 10152 10152 10154 10154 10154 10154 10154 10154 10155 10157 10159 10159 10159 10160 10161 10162 10163 10164 10166 10167 10167 10167 10167 10167 10167 10167 10167 10167 10167 10167 10167 10167 10167 10169 10171 10170 10169 10170 10171 10171 10171 10171 10172 10172 10172 10172 10172 10172 10172 10171 10171 10171 10171 10171 10171 10171 10171 10170 10170 10169 10169 10167 10166 10165 10164 10162 10160 10158 10156 10154 10151 10148 10146 10143
10140 10141 10141 10141 10142 10142 10142 10143 10144 10144 10144 10144 10145 10146 10147 10149 10148 10147 10146 10147 10149 10150 10151 10151 10152 10154 10154 10156 10157 10159 10161 10161 10160 10159 10160 10161 10161 10160 10161 10161 10162 10162 10163 10162 10162 10164 10166 10165 10165 10165 10166 10166 10166 10167 10167 10167 10167 10167 10167 10167 10167 10167 10166 10166 10166 10166 10166 10166 10166 10166 10166 10165 10164 10163 10161 10160 10158 10157 10154 10152 10150 10147 10145 10142 10139 10137
10133 10134 10134 10134 10135 10135 10136 10136 10137 10137 10137 10137 10138 10139 10141 10141 10141 10141 10140 10142 10143 10144 10143 10144 10146 10148 10149 10150 10152 10153 10153 10153 10152 10153 10154 10155 10154 10154 10155 10156 10157 10157 10159 10159 10158 10159 10160 10159 10160 10161 10161 10161 10161 10162 10162 10162 10162 10163 10163 10162 10162 10162 10162 10161 10161 10161 10161 10162 10162 10161 10161 10160 10159 10157 10156 10154 10153 10151 10149 10146 10144 10141 10139 10136 10134 10131
10127 10127 10127 10127 10128 10129 10129 10130 10131 10131 10131 10131 10131 10132 10133 10134 10134 10134 10134 10136 10137 10137 10137 10138 10140 10142 10144 10146 10146 10146 10146 10146 10146 10147 10149 10149 10148 10148 10149 10151 10151 10151 10154 10154 10154 10154 10153 10153 10155 10156 10157 10156 10156 10157 10157 10157 10158 10158 10158 10158 10157 10157 10157 10157 10157 10157 10157 10157 10156 10156 10155 10154 10153 10152 10151 10149 10147 10144 10142 10140 10138 10136 10133 10131 10128 10126
10121 10121 10121 10121 10122 10122 10123 10124 10124 10125 10125 10125 10125 10126 10126 10127 10128 10129 10129 10131 10131 10131 10132 10133 10135 10137 10139 10140 10141 10140 10139 10140 10141 10142 10143 10144 10142 10142 10145 10146 10146 10146 10147 10149 10150 10149 10147 10147 10149 10151 10152 10152 10152 10152 10152 10153 10154 10154 10154 10154 10153 10153 10153 10153 10152 10152 10152 10151 10151 10150 10149 10148 10147 10146 10144 10142 10141 10138 10136 10134 10132 10131 10128 10126 10123 10121
10114 10114 10115 10116 10116 10117 10118 10119 10119 10119 10119 10119 10119 10120 10121 10121 10122 10123 10124 10125 10126 10126 10127 10128 10129 10131 10132 10134 10134 10134 10134 10135 10136 10136 10137 10139 10138 10137 10140 10141 10141 10141 10142 10144 10145 10144 10144 10144 10144 10146 10148 10148 10148 10148 10149 10149 10150 10150 10150 10149 10149 10149 10148 10149 10148 10147 10147 10146 10145 10144 10144 10142 10141 10140 10138 10136 10134 10132 10131 10129 10127 10126 10123 10121 10118 10115
10109 10109 10109 10110 10111 10112 10112 10113 10114 10114 10114 10114 10114 10114 10115 10116 10116 10117 10118 10119 10121 10122 10123 10124 10124 10126 10127 10127 10128 10129 10129 10130 10130 10131 10132 10134 10134 10133 10134 10136 10137 10137 10137 10139 10139 10140 10140 10140 10141 10142 10144 10144 10144 10145 10146 10146 10146 10146 10146 10145 10144 10144 10144 10144 10143 10142 10141 10141 10140 10139 10138 10137 10136 10134 10132 10131 10129 10127 10126 10124 10122 10121 10119 10116 10113 10109
10104 10104 10104 10104 10106 10106 10107 10108 10108 10109 10109 10109 10109 10109 10110 10111 10111 10111 10112 10114 10116 10117 10118 10119 10120 10121 10121 10122 10123 10124 10124 10124 10125 10126 10128 10130 10129 10129 10130 10131 10132 10132 10134 10134 10134 10135 10136 10136 10137 10139 10139 10140 10141 10142 10142 10142 10142 10141 10141 10141 10140 10139 10139 10139 10138 10137 10136 10136 10135 10134 10133 10132 10130 10128 10127 10125 10124 10122 10120 10119 10117 10116 10114 10111 10107 10104
10099 10099 10099 10099 10101 10101 10102 10103 10104 10104 10104 10104 10104 10104 10105 10106 10106 10106 10108 10110 10111 10112 10113 10114 10115 10116 10116 10117 10117 10118 10118 10119 10121 10122 10124 10125 10124 10124 10126 10126 10127 10129 10130 10130 10131 10131 10132 10133 10134 10135 10136 10136 10137 10137 10137 10137 10137 10137 10136 10136 10136 10135 10134 10134 10134 10132 10132 10131 10130 10129 10128 10126 10125 10123 10122 10120 10119 10117 10116 10114 10112 10110 10108 10106 10102 10099
10094 10094 10094 10095 10096 10097 10097 10098 10099 10099 10099 10099 10100 10100 10101 10101 10101 10102 10103 10105 10107 10107 10109 10109 10110 10111 10111 10112 10112 10113 10114 10115 10117 10118 10119 10119 10120 10121 10122 10122 10123 10124 10126 10126 10126 10127 10129 10130 10131 10132 10132 10133 10132 10132 10132 10132 10133 10132 10132 10131 10131 10131 10130 10130 10129 10129 10127 10127 10126 10124 10123 10122 10120 10118 10117 10115 10114 10112 10110 10109 10107 10105 10102 10099 10097 10094
10090 10091 10091 10091 10092 10092 10093 10094 10094 10094 10095 10095 10095 10096 10096 10096 10097 10097 10099 10100 10102 10102 10104 10104 10105 10106 10107 10107 10109 10109 10109 10111 10112 10114 10114 10115 10116 10117 10118 10118 10119 10121 10122 10122 10123 10124 10126 10127 10127 10127 10128 10129 10128 10128 10127 10128 10128 10128 10127 10127 10127 10127 10126 10126 10125 10124 10124 10122 10121 10120 10118 10117 10115 10113 10111 10110 10108 10107 10105 10103 10101 10099 10097 10094 10091 10087
10086 10086 10087 10087 10087 10088 10089 10089 10090 10090 10091 10091 10091 10091 10091 10092 10092 10093 10094 10096 10097 10098 10099 10100 10101 10102 10102 10104 10104 10105 10106 10107 10108 10109 10110 10111 10112 10113 10114 10115 10116 10117 10118 10119 10120 10121 10122 10123 10123 10123 10123 10123 10124 10124 10124 10124 10124 10124 10123 10123 10123 10123 10122 10122 10121 10121 10119 10118 10116 10115 10114 10112 10110 10108 10106 10104 10103 10101 10099 10097 10096 10093 10091 10088 10085 10082
10082 10082 10082 10083 10084 10084 10085 10085 10086 10086 10086 10086 10087 10087 10087 10088 10089 10090 10091 10092 10093 10094 10095 10096 10096 10097 10098 10099 10100 10101 10102 10103 10104 10105 10106 10107 10109 10110 10111 10112 10112 10113 10114 10116 10117 10117 10118 10119 10119 10119 10119 10119 10119 10119 10119 10120 10119 10119 10119 10119 10119 10119 10118 10117 10117 10116 10115 10114 10112 10110 10108 10106 10105 10103 10101 10099 10097 10096 10094 10091 10089 10087 10085 10082 10079 10075
10078 10078 10079 10079 10080 10081 10081 10081 10081 10082 10082 10082 10082 10083 10084 10084 10085 10086 10087 10089 10089 10090 10091 10091 10092 10093 10094 10096 10097 10097 10099 10099 10101 10102 10103 10104 10106 10107 10107 10109 10109 10110 10111 10112 10113 10114 10114 10114 10114 10114 10115 10115 10115 10115 10116 10116 10116 10116 10116 10116 10114 10114 10114 10114 10112 10111 10110 10109 10107 10105 10102 10101 10099 10098 10096 10094 10092 10091 10089 10086 10084 10081 10079 10076 10073 10069
10074 10074 10075 10076 10076 10076 10077 10077 10077 10078 10078 10078 10079 10079 10080 10081 10082 10082 10083 10084 10085 10086 10087 10088 10089 10090 10091 10092 10093 10094 10095 10096 10097 10098 10099 10101 10102 10104 10104 10106 10106 10107 10108 10109 10109 10109 10110 10110 10110 10111 10111 10111 10111 10112 10112 10112 10112 10112 10112 10112 10111 10110 10109 10109 10108 10106 10105 10103 10101 10099 10097 10096 10094 10092 10091 10089 10087 10086 10084 10081 10079 10076 10072 10070 10067 10064
10071 10071 10071 10071 10072 10072 10073 10073 10074 10074 10074 10075 10075 10076 10076 10077 10078 10079 10080 10081 10082 10082 10084 10085 10086 10087 10087 10089 10090 10091 10092 10092 10094 10095 10096 10098 10099 10101 10101 10102 10102 10104 10104 10104 10105 10106 10106 10106 10106 10107 10107 10107 10108 10108 10108 10108 10108 10108 10108 10107 10106 10106 10105 10104 10102 10102 10100 10097 10096 10094 10092 10091 10089 10087 10086 10084 10082 10080 10078 10076 10073 10070 10067 10064 10061 10058
10067 10067 10067 10068 10068 10069 10069 10069 10070 10070 10071 10071 10072 10072 10073 10074 10075 10076 10077 10078 10079 10080 10081 10082 10083 10084 10085 10086 10087 10087 10089 10090 10091 10092 10094 10095 10096 10097 10098 10099 10099 10100 10101 10101 10101 10101 10102 10102 10102 10103 10103 10104 10105 10105 10104 10104 10104 10104 10104 10103 10102 10102 10100 10097 10097 10096 10094 10092 10090 10089 10087 10086 10084 10082 10080 10079 10076 10074 10072 10070 10067 10064 10062 10059 10056 10052
10063 10063 10064 10064 10064 10065 10066 10066 10066 10067 10067 10067 10069 10069 10070 10071 10072 10073 10074 10075 10076 10077 10079 10079 10081 10082 10082 10083 10084 10085 10086 10087 10088 10090 10091 10092 10093 10094 10094 10095 10096 10096 10097 10097 10097 10097 10098 10099 10099 10099 10100 10101 10101 10101 10101 10100 10100 10099 10099 10098 10098 10097 10095 10092 10091 10090 10088 10086 10084 10083 10082 10080 10078 10076 10074 10072 10071 10068 10066 10064 10061 10059 10056 10053 10050 10047
10059 10060 10060 10061 10061 10062 10062 10062 10062 10063 10064 10065 10066 10066 10067 10068 10069 10071 10072 10072 10074 10075 10076 10077 10078 10079 10079 10080 10081 10082 10083 10084 10086 10087 10088 10089 10090 10091 10091 10092 10092 10092 10093 10094 10094 10094 10095 10096 10096 10096 10097 10097 10097 10097 10096 10096 10096 10095 10094 10094 10092 10091 10089 10087 10086 10084 10082 10081 10079 10077 10076 10075 10073 10071 10069 10066 10064 10062 10060 10058 10056 10053 10050 10047 10044 10041
10056 10056 10057 10057 10058 10058 10059 10059 10059 10060 10061 10062 10063 10064 10065 10066 10067 10068 10069 10071 10071 10072 10072 10074 10076 10076 10076 10077 10078 10079 10081 10082 10084 10085 10086 10086 10087 10087 10088 10089 10089 10089 10090 10090 10091 10091 10092 10092 10092 10093 10093 10093 10093 10092 10092 10092 10091 10090 10089 10088 10087 10086 10084 10082 10081 10079 10077 10076 10074 10072 10071 10069 10067 10065 10062 10060 10057 10056 10054 10052 10050 10047 10044 10041 10037 10034
10053 10053 10054 10054 10055 10055 10056 10056 10057 10057 10059 10059 10061 10061 10062 10064 10064 10066 10067 10068 10069 10069 10070 10071 10072 10073 10074 10075 10076 10077 10078 10080 10081 10082 10083 10084 10084 10085 10085 10086 10086 10086 10087 10087 10087 10088 10089 10089 10089 10089 10089 10089 10088 10087 10087 10087 10086 10085 10084 10082 10082 10081 10079 10077 10076 10074 10073 10071 10069 10067 10066 10064 10061 10059 10056 10054 10052 10049 10047 10046 10044 10041 10038 10034 10031 10027
10050 10051 10051 10051 10052 10052 10052 10053 10054 10055 10056 10057 10058 10059 10060 10061 10062 10064 10064 10065 10066 10067 10068 10069 10069 10071 10071 10072 10074 10075 10076 10077 10078 10079 10081 10081 10081 10082 10082 10083 10083 10084 10084 10084 10085 10085 10085 10085 10086 10086 10085 10084 10084 10082 10082 10081 10081 10079 10078 10077 10076 10075 10074 10072 10071 10070 10068 10066 10064 10062 10060 10058 10056 10052 10050 10048 10046 10043 10041 10039 10037 10034 10032 10029 10025 10021
10047 10047 10048 10049 10049 10050 10050 10051 10052 10053 10054 10055 10056 10057 10058 10059 10061 10061 10062 10063 10064 10065 10066 10066 10067 10068 10069 10071 10072 10073 10074 10075 10076 10077 10077 10078 10079 10079 10080 10080 10081 10081 10081 10081 10081 10081 10081 10081 10081 10081 10081 10080 10079 10077 10076 10075 10074 10073 10072 10071 10071 10070 10069 10067 10066 10065 10063 10061 10059 10056 10054 10052 10049 10047 10045 10042 10039 10036 10034 10032 10030 10027 10024 10022 10019 10015
10044 10045 10046 10046 10047 10047 10048 10049 10050 10051 10052 10053 10054 10055 10056 10057 10058 10059 10060 10061 10062 10062 10063 10064 10065 10066 10067 10069 10069 10071 10072 10073 10074 10074 10075 10076 10076 10077 10077 10077 10078 10078 10078 10078 10077 10077 10077 10077 10076 10076 10076 10076 10074 10073 10071 10069 10068 10067 10067 10066 10066 10065 10064 10062 10061 10059 10057 10055 10052 10050 10048 10046 10043 10041 10039 10036 10032 10029 10027 10025 10022 10020 10017 10015 10012 10008
10042 10042 10043 10044 10044 10046 10046 10047 10048 10049 10051 10051 10052 10054 10054 10056 10056 10057 10058 10059 10059 10061 10061 10062 10064 10064 10066 10066 10067 10069 10070 10071 10072 10072 10072 10073 10074 10074 10074 10074 10074 10075 10075 10074 10074 10074 10074 10073 10072 10071 10070 10070 10069 10068 10066 10064 10063 10062 10061 10061 10061 10060 10059 10056 10054 10052 10051 10048 10046 10044 10042 10039 10036 10034 10032 10029 10026 10022 10019 10017 10015 10012 10011 10008 10005 10001